Location: Morlupo
(42.1333°N, 12.5000°E)
Time: 15:50:05
(UTC+00:00)

Ariane Rocket - Pass Details

Date: 18 September 2020
Orbit: 760 x 769 km, 98.7° (Epoch: 26 October)

Event Time Altitude Azimuth Distance (km) Brightness Sun altitude
Exits shadow 18:09:45 11° 131° (SE) 2,244 4.9 -11.1°
Maximum altitude 18:14:09 35° 68° (ENE) 1,223 3.7 -11.9°
Drops below altitude 10° 18:18:44 10° 4° (N) 2,312 5.6 -12.7°
Sets 18:21:12 0° 355° (N) 3,244 6.5 -13.2°
